Regional Weather Roundup
Issued by NWS

Home | Current Version | Previous Version | Graphics & Text | Print | Product List | Glossary On
Versions: 1 2 3 4 5 6 7 8 9 10 11 12 13 14 15 16 17 18 19 20 21 22 23 24 25 26 27 28 29 30 31 32 33 34 35 36 37 38 39 40 41 42 43 44 45 46 47 48 49 50
000
ASUS45 KCYS 141210
RWRWY

WYOMING REGIONAL WEATHER ROUNDUP
NATIONAL WEATHER SERVICE CHEYENNE WY
600 AM MDT SUN SEP 14 2014

NOTE:  "FAIR" INDICATES FEW OR NO CLOUDS BELOW 12,000 FEET
WITH NO SIGNIFICANT WEATHER AND/OR OBSTRUCTIONS TO VISIBILITY.

WYZ001-141300-
YELLOWSTONE NATIONAL PARK

CITY           SKY/WX    TMP DP  RH WIND       PRES   REMARKS
LK YELLOWSTONE   N/A     28  25  88 NW3       30.20R
6HR MIN TEMP:  28; 6HR MAX TEMP:  33;

W YELLOWSTONE  NOT AVBL

$$
WYZ002>013-054>058-071-098>099-141300-
NORTHERN WYOMING

CITY           SKY/WX    TMP DP  RH WIND       PRES   REMARKS
JACKSON        CLEAR     34  28  80 NE7       30.14R WCI  28
CODY           CLEAR     37  36  93 S5        30.07F WCI  34
GREYBULL       CLEAR     38  35  89 CALM      30.06S
6HR MIN TEMP:  37; 6HR MAX TEMP:  46;

WORLAND        CLEAR     36  34  92 CALM      30.06S
6HR MIN TEMP:  35; 6HR MAX TEMP:  43;

SHERIDAN       CLEAR     33  30  88 CALM      30.08F
6HR MIN TEMP:  32; 6HR MAX TEMP:  39;

BUFFALO        CLEAR     41  34  76 SE10      30.08S
6HR MIN TEMP:  38; 6HR MAX TEMP:  42;

GILLETTE       CLEAR     31  29  92 CALM      30.10S
6HR MIN TEMP:  30; 6HR MAX TEMP:  34;

HULETT         FAIR      37  34  87 MISG      30.13
NEWCASTLE      FAIR      34  34 100 CALM      30.14

$$
WYZ014>020-022>026-101>103-141300-
CENTRAL WYOMING

CITY           SKY/WX    TMP DP  RH WIND       PRES   REMARKS
BIG PINEY      PTCLDY    31  23  72 CALM      30.18S
6HR MIN TEMP:  31; 6HR MAX TEMP:  49;

PINEDALE       MOSUNNY   28  27  93 W6        30.19S WCI  22
DUBOIS         FAIR      34  27  75 NW13      30.13F WCI  25
LANDER         PTCLDY    41  32  70 W3        30.09F
6HR MIN TEMP:  38; 6HR MAX TEMP:  46;

RIVERTON       PTCLDY    37  30  75 W8        30.10F WCI  31
6HR MIN TEMP:  37; 6HR MAX TEMP:  47;

CASPER         CLEAR     34  30  85 W6        30.10F WCI  29
6HR MIN TEMP:  31; 6HR MAX TEMP:  38;

DOUGLAS        MOCLDY    35  33  92 W5        30.12R WCI  31
6HR MIN TEMP:  36; 6HR MAX TEMP:  46;


$$
WYZ021-027>030-104>119-141300-
SOUTHERN WYOMING

CITY           SKY/WX    TMP DP  RH WIND       PRES   REMARKS
EVANSTON       PTCLDY    51  28  41 S8        30.18S
6HR MIN TEMP:  50; 6HR MAX TEMP:  58;

KEMMERER       PTSUNNY   41  32  70 N8        30.19R
FORT BRIDGER   FAIR      56  26  31 W9        30.19S
ROCK SPRINGS   PTCLDY    55  24  30 CALM      30.16S
6HR MIN TEMP:  52; 6HR MAX TEMP:  58;

DIXON          FAIR      41  33  74 SE7       30.22R
RAWLINS        PTCLDY    42  26  53 CALM      30.17R
6HR MIN TEMP:  38; 6HR MAX TEMP:  56;

SARATOGA       FAIR      43  32  65 SE5       30.19S
LARAMIE        CLEAR     41  29  62 SW9       30.18S
6HR MIN TEMP:  40; 6HR MAX TEMP:  49;

CHEYENNE       CLEAR     46  34  62 SW6       30.13S
6HR MIN TEMP:  42; 6HR MAX TEMP:  47;

TORRINGTON     MOCLDY    39  37  92 N8        30.10S WCI  33
6HR MIN TEMP:  39; 6HR MAX TEMP:  45;

PINE BLUFFS    FAIR      36  36 100 CALM      30.11S

$$


USA.gov is the U.S. government's official web portal to all federal, state and local government web resources and services.